Preview of NWS' New Version of Forecast
This preview is not operational and should not be used for support decisions.

Regional Weather Roundup (RWR)

Issued by National Weather Service (NWS)

                            
000
ASUS46 KPQR 190610
RWROR 

OREGON REGIONAL WEATHER ROUNDUP
NATIONAL WEATHER SERVICE PORTLAND OR
1100 PM PDT THU APR 18 2019

NOTE: "FAIR" INDICATES FEW OR NO CLOUDS BELOW 12,000 FEET WITH
NO SIGNIFICANT WEATHER AND/OR OBSTRUCTIONS TO VISIBILITY.

ORZ001>013-190700-
NORTHWEST OREGON

  
CITY           SKY/WX    TMP DP  RH WIND       PRES   REMARKS
ASTORIA        CLOUDY    54  51  90 SE5       30.09F                  
6HR MIN TEMP:  54; 6HR MAX TEMP:  59; 6HR PCP: TRACE;                

TILLAMOOK      CLOUDY    54  52  94 CALM      30.12F                  
NEWPORT        MOCLDY    52  52 100 CALM      30.14F                  
PORTLAND       MOCLDY    61  50  67 NW10      30.07F                  
6HR MIN TEMP:  61; 6HR MAX TEMP:  76;                                

VANCOUVER WA   MOCLDY    62  50  64 CALM      30.07S                  
6HR MIN TEMP:  62; 6HR MAX TEMP:  75; 6HR PCP: TRACE;                

SCAPPOOSE      MOCLDY    60  51  72 N10       30.06F                  
6HR MIN TEMP:  60; 6HR MAX TEMP:  77;                                

HILLSBORO      MOCLDY    60  48  64 W8        30.06F                  
6HR MIN TEMP:  59; 6HR MAX TEMP:  75; 6HR PCP: TRACE;                

AURORA         CLOUDY    65  50  58 NW9       30.07F                  
6HR MIN TEMP:  64; 6HR MAX TEMP:  75;                                

MCMINNVILLE    CLOUDY    57  49  74 W8        30.06F                  
6HR MIN TEMP:  57; 6HR MAX TEMP:  75;                                

SALEM          MOCLDY    61  47  59 W5        30.06F                  
6HR MIN TEMP:  61; 6HR MAX TEMP:  77;                                

CORVALLIS      PTCLDY    60  50  69 NW12      30.08F                  
EUGENE         PTCLDY    58  50  75 CALM      30.07F                  
6HR MIN TEMP:  57; 6HR MAX TEMP:  79;                                

$$

ORZ021-028-190700-
SOUTHWEST OREGON

  
CITY           SKY/WX    TMP DP  RH WIND       PRES   REMARKS
NORTH BEND     CLEAR     53  52  96 CALM      30.14S                  
6HR MIN TEMP:  53; 6HR MAX TEMP:  61;                                

BROOKINGS      CLEAR     53  51  93 CALM      30.08S                  
ROSEBURG       CLEAR     68  50  52 N6        30.06F                  
6HR MIN TEMP:  67; 6HR MAX TEMP:  85;                                

SEXTON SUMMIT  CLEAR     56  48  74 N9        30.14F                  
6HR MIN TEMP:  56; 6HR MAX TEMP:  73;                                

GRANTS PASS    FAIR      64  52  63 CALM      30.06F                  
MEDFORD        CLEAR     65  49  56 S6        30.04S                  
6HR MIN TEMP:  65; 6HR MAX TEMP:  85;                                

$$

ORZ014>016-041-190700-
COLUMBIA GORGE

  
CITY           SKY/WX    TMP DP  RH WIND       PRES   REMARKS
TROUTDALE      MOCLDY    63  50  62 W7        30.06F                  
6HR MIN TEMP:  63; 6HR MAX TEMP:  77;                                

HOOD RIVER     MOCLDY    63  50  63 MISG      30.03F                  
THE DALLES     CLOUDY    68  49  50 SW8       30.00F                  
6HR MIN TEMP:  68; 6HR MAX TEMP:  80;                                

$$

ORZ029>031-041-044-049-050-061>064-502-503-505>511-190700-
EASTERN OREGON

  
CITY           SKY/WX    TMP DP  RH WIND       PRES   REMARKS
MADRAS         PTCLDY    57  50  77 CALM      30.10S                  
REDMOND        CLEAR     59  45  59 CALM      30.09F                  
6HR MIN TEMP:  59; 6HR MAX TEMP:  80;                                

BEND           CLEAR     57  45  62 SW3       30.11F                  
PRINEVILLE     CLEAR     55  45  67 CALM      30.10F                  
KLAMATH FALLS  CLEAR     48  42  80 CALM      30.14F                  
6HR MIN TEMP:  48; 6HR MAX TEMP:  75;                                

LAKEVIEW       CLEAR     46  40  79 N8        30.18F                  
HERMISTON      MOCLDY    64  54  69 S7        29.99F                  
6HR MIN TEMP:  64; 6HR MAX TEMP:  81; 6HR PCP: TRACE;                

PENDLETON      PTCLDY    57  50  77 E5        30.02F                  
6HR MIN TEMP:  57; 6HR MAX TEMP:  75;                                

JOHN DAY       CLEAR     59  42  54 E7        30.13F                  
MEACHAM        CLEAR     43  39  86 CALM      30.12F                  
6HR MIN TEMP:  43; 6HR MAX TEMP:  70;                                

LA GRANDE      CLEAR     63  44  50 S20G28    30.09F                  
6HR MIN TEMP:  62; 6HR MAX TEMP:  72;                                

BAKER CITY     CLEAR     51  42  71 CALM      30.15F                  
6HR MIN TEMP:  50; 6HR MAX TEMP:  74;                                

BURNS          CLEAR     51  42  71 CALM      30.16F                  
6HR MIN TEMP:  49; 6HR MAX TEMP:  73;                                

ROME             N/A     50  43  77 SW3       30.16F                  
6HR MIN TEMP:  50; 6HR MAX TEMP:  75;                                

ONTARIO        CLEAR     56  44  64 CALM      30.14F                  
6HR MIN TEMP:  54; 6HR MAX TEMP:  75;                                

$$